Showing default

YAOGAN-39 02A, 57886

Orbit data source: Space-Track

YAOGAN-39 02A, 57886 is a payload satellite owned by PLA GAD (CN) in LEO that was launched on Sun, 17 Sep 2023 UTC via a CHANG ZHENG 2D launch vehicle from the Xichang Space Center, China (XSC). Payload-class satellites include a variety of spacecraft equipped with specific instruments for various scientific and technological missions. These include communications satellites like Starlink; space stations such as the ISS; scientific satellites like the Hubble; Earth observation satellites from companies like Planet Labs, Umbra, and HawkEye 360; GPS; miniature CubeSats for education and research; and military/defense satellites.

Loading next visibility...
Identifier
57886, 2023-145A
Orbit
LEO
Country
Flag of CNCN / PRC
Related business
Manufacturer
DFH
Mission
Operational Defense Sigint
Bus & Motor
Unknown
Mass
~300 kg wet, ~300 kg dry
Launch date (UTC)
2023-09-17 (3 years ago)
Launch vehicle
CHANG ZHENG 2D
Launch site
Xichang Space Center, China (XSC)
Object type
Payload
Rocket body
Debris
Shape & HBR
Box + 2 Pan, 2.5 m
Radar Cross Section
11.063 m², Large (>1 m²)

Expand to show TLE details & history
Last TLE update: 23 hours ago

TLE from 23 hours ago
0 YAOGAN-39 02A
1 57886U 23145A   26172.46017926  .00005311  00000-0  22245-3 0  9990
2 57886  35.0019 173.5804 0002428 327.0822  32.9741 15.22906172153822
Epoch: 2026-06-21T11:02Z
TLE epoch observation values (Epoch: 2026-06-21T11:02:39.488Z)
Latitude
-0.00002°
Longitude
98.25571°
Altitude
494.587 km
Speed
7.621 km/s
True Right ascension
11h 34m 19s
True Declination
0° 00' 00"
Sunlit
Object was in daylight at epoch
Visualization orbit readout
Latitude
Unknown
Longitude
Unknown
Altitude
Unknown
Speed
Unknown
Apparent Right ascension
Unknown
Apparent Declination
Unknown
Sunlit
N/A
Visualization observer readout
Local Sidereal Time
21:31:56
Azimuth
Unknown
Elevation
Unknown
Doppler factor
Unknown
Orbital elements
Apogee altitude
502 km
Perigee altitude
498.66 km
Semi-major axis
6,878.467 km
Eccentricity
0.00024
Inclination
35.0019°
RAAN
173.5804°
Arg. of periapsis
327.0822°
True anomaly
32.98925°
Mean anomaly
32.9741°
Eccentric anomaly
32.98167°
Mean motion
3.80457 °/min
Orbital period
94.62 mins
BSTAR
0.00022245
Loading maneuver chart data...
Computing Atmospheric mass density...
Loading historical data...
Loading historical data...
Loading historical data...
Loading historical data...
Loading historical data...
Loading historical data...
Loading historical data...
Other satellites on launch #145 in the year 2023 (2023-09-17 UTC)

Documentation

Showing up to 5 results
|